MEASAT-3                
1 29648U 06056A   19266.52924769 -.00000253  00000-0  00000+0 0  9994
2 29648   0.0387 135.2825 0003319  36.1511 112.7014  1.00272807 46900
BREEZE-M DEB [TANK]     
1 29649U 06056B   19264.41708896  .00000756  00000-0  22716-3 0  9991
2 29649  49.5392 346.6872 5358017 319.4181  11.0747  5.01520406229158
BREEZE-M R/B            
1 29650U 06056C   19264.86496289 -.00000105  00000-0  00000+0 0  9999
2 29650  17.5437 337.2525 5027441 147.6406 253.8692  1.86163038 86879